CW2274 Weather Reports


time (UTC)temp
C
wind
direction
speed
KPH
gust
KPH
rain 1hr
cm
rain 24hr
cm
rain mn
cm
humidity
%
barometer
mb
20260905083516 25 54 1.6 3.2 0.00 0.00 0.00 64 1016.3
20260905083031 25 54 1.6 1.6 0.00 0.00 0.00 63 1016.2
20260905082526 25 54 0.0 3.2 0.00 0.00 0.00 63 1016.3
20260905082021 26 54 3.2 3.2 0.00 0.00 0.00 62 1016.3
20260905081516 26 54 0.0 0.0 0.00 0.00 0.00 60 1016.4
20260905081015 26 54 0.0 0.0 0.00 0.00 0.00 60 1016.4
20260905080530 26 54 0.0 0.0 0.00 0.00 0.00 60 1016.5
20260905080036 26 54 0.0 3.2 0.00 0.00 0.00 59 1016.5
20260905075516 26 54 0.0 4.8 0.00 0.00 0.00 58 1016.5
20260905075030 27 54 1.6 4.8 0.00 0.00 0.00 57 1016.5
20260905074524 27 54 3.2 3.2 0.00 0.00 0.00 58 1016.5
20260905074018 26 54 1.6 3.2 0.00 0.00 0.00 58 1016.5
20260905073512 26 54 0.0 3.2 0.00 0.00 0.00 59 1016.5
20260905073031 26 54 0.0 3.2 0.00 0.00 0.00 58 1016.4
20260905072524 27 54 1.6 3.2 0.00 0.00 0.00 57 1016.4
20260905072019 27 54 1.6 3.2 0.00 0.00 0.00 57 1016.3
20260905071514 27 54 0.0 3.2 0.00 0.00 0.00 56 1016.3
20260905071029 27 54 0.0 4.8 0.00 0.00 0.00 56 1016.3
20260905070523 27 54 3.2 6.4 0.00 0.00 0.00 56 1016.3
20260905070030 27 54 3.2 6.4 0.00 0.00 0.00 56 1016.3
20260905065514 27 54 1.6 4.8 0.00 0.00 0.00 57 1016.3
20260905065029 27 54 1.6 3.2 0.00 0.00 0.00 56 1016.2
20260905064523 27 54 1.6 1.6 0.00 0.00 0.00 56 1016.2
20260905064017 27 54 0.0 6.4 0.00 0.00 0.00 55 1016.2
20260905063511 28 54 3.2 6.4 0.00 0.00 0.00 55 1016.0
20260905063026 28 57 3.2 4.8 0.00 0.00 0.00 55 1016.2
20260905062520 28 57 1.6 6.4 0.00 0.00 0.00 53 1016.1
20260905062015 28 57 3.2 6.4 0.00 0.00 0.00 54 1016.1
20260905061513 28 56 3.2 6.4 0.00 0.00 0.00 53 1016.1
20260905061029 28 56 3.2 6.4 0.00 0.00 0.00 53 1016.0
20260905060523 28 56 3.2 3.2 0.00 0.00 0.00 54 1016.1
20260905060029 28 56 0.0 8.0 0.00 0.00 0.00 53 1016.0
20260905055529 28 56 1.6 8.0 0.00 0.00 0.00 52 1015.9
20260905055023 28 53 3.2 11.3 0.00 0.00 0.00 52 1015.9
20260905054517 29 52 4.8 11.3 0.00 0.00 0.00 50 1015.9
20260905054016 29 51 4.8 11.3 0.00 0.00 0.00 50 1016.1
20260905053530 29 35 6.4 8.0 0.00 0.00 0.00 47 1015.9
20260905053024 29 269 3.2 6.4 0.00 0.00 0.00 47 1015.9
20260905052518 29 269 3.2 6.4 0.00 0.00 0.00 47 1015.8
20260905052012 29 269 1.6 3.2 0.00 0.00 0.00 46 1015.8
20260905051526 29 269 1.6 3.2 0.00 0.00 0.00 46 1015.6
20260905051020 30 269 1.6 6.4 0.00 0.00 0.00 46 1015.5
20260905050515 30 269 1.6 6.4 0.00 0.00 0.00 45 1015.6
20260905050027 30 269 1.6 9.7 0.00 0.00 0.00 44 1015.5
20260905045526 30 269 3.2 9.7 0.00 0.00 0.00 44 1015.5
20260905045021 30 277 3.2 9.7 0.00 0.00 0.00 43 1015.4
20260905044514 30 261 3.2 11.3 0.00 0.00 0.00 43 1015.5
20260905044029 30 260 3.2 11.3 0.00 0.00 0.00 43 1015.4
20260905043523 30 259 4.8 9.7 0.00 0.00 0.00 43 1015.4
20260905043018 30 240 4.8 11.3 0.00 0.00 0.00 42 1015.4
20260905042517 30 238 4.8 8.0 0.00 0.00 0.00 42 1015.4
20260905042011 30 236 4.8 8.0 0.00 0.00 0.00 42 1015.4
20260905041525 30 233 3.2 6.4 0.00 0.00 0.00 42 1015.6
20260905041019 31 233 3.2 6.4 0.00 0.00 0.00 41 1015.6
20260905040513 31 232 3.2 9.7 0.00 0.00 0.00 40 1015.5
20260905040039 31 231 4.8 9.7 0.00 0.00 0.00 40 1015.6
20260905035518 31 231 4.8 8.0 0.00 0.00 0.00 40 1015.5
20260905035012 31 236 3.2 8.0 0.00 0.00 0.00 40 1015.4
20260905034530 31 236 4.8 8.0 0.00 0.00 0.00 40 1015.4
20260905034025 31 236 3.2 8.0 0.00 0.00 0.00 40 1015.4
20260905033520 31 236 3.2 9.7 0.00 0.00 0.00 40 1015.3
20260905033014 31 248 3.2 12.9 0.00 0.00 0.00 39 1015.3
20260905032529 31 239 6.4 12.9 0.00 0.00 0.00 39 1015.2
20260905032023 31 294 4.8 8.0 0.00 0.00 0.00 39 1015.1
20260905031517 31 296 1.6 4.8 0.00 0.00 0.00 40 1015.0
20260905031015 31 296 1.6 6.4 0.00 0.00 0.00 40 1014.9
20260905030529 31 296 3.2 6.4 0.00 0.00 0.00 40 1014.9
20260905030036 31 296 3.2 4.8 0.00 0.00 0.00 40 1014.9
20260905025516 31 296 3.2 6.4 0.00 0.00 0.00 39 1014.7
20260905025030 31 296 1.6 6.4 0.00 0.00 0.00 39 1014.8
20260905024525 31 298 1.6 6.4 0.00 0.00 0.00 39 1014.6
20260905024018 31 298 3.2 4.8 0.00 0.00 0.00 39 1014.6
20260905023513 31 298 1.6 3.2 0.00 0.00 0.00 39 1014.5
20260905023032 31 298 0.0 4.8 0.00 0.00 0.00 39 1014.5
20260905022526 31 298 0.0 6.4 0.00 0.00 0.00 39 1014.4
20260905022022 31 298 3.2 6.4 0.00 0.00 0.00 39 1014.4
20260905021516 31 298 3.2 4.8 0.00 0.00 0.00 40 1014.5
20260905021032 31 298 1.6 3.2 0.00 0.00 0.00 38 1014.4
20260905020526 32 298 0.0 3.2 0.00 0.00 0.00 38 1014.4
20260905020032 32 298 1.6 3.2 0.00 0.00 0.00 37 1014.3
20260905015517 32 298 1.6 4.8 0.00 0.00 0.00 37 1014.2
20260905015032 32 298 1.6 6.4 0.00 0.00 0.00 36 1014.2
20260905014525 32 298 3.2 6.4 0.00 0.00 0.00 34 1014.3
20260905014020 32 298 3.2 6.4 0.00 0.00 0.00 35 1014.1
20260905013515 32 299 3.2 6.4 0.00 0.00 0.00 35 1014.1
20260905013029 32 299 3.2 8.0 0.00 0.00 0.00 33 1014.2
20260905012524 33 300 3.2 12.9 0.00 0.00 0.00 33 1014.2
20260905012018 33 296 4.8 12.9 0.00 0.00 0.00 32 1014.1
20260905011516 33 287 3.2 9.7 0.00 0.00 0.00 31 1014.2
20260905011030 33 281 3.2 9.7 0.00 0.00 0.00 33 1014.1
20260905010524 33 281 3.2 14.5 0.00 0.00 0.00 33 1013.9
20260905010031 33 281 3.2 14.5 0.00 0.00 0.00 31 1014.0
20260905005531 33 285 6.4 14.5 0.00 0.00 0.00 29 1014.0
20260905005024 33 303 3.2 16.1 0.00 0.00 0.00 29 1014.0
20260905004518 34 304 3.2 11.3 0.00 0.00 0.00 29 1013.9
20260905004016 34 319 3.2 8.0 0.00 0.00 0.00 29 1013.9
20260905003531 34 293 1.6 6.4 0.00 0.00 0.00 31 1013.9
20260905003025 34 293 3.2 11.3 0.00 0.00 0.00 30 1014.0
20260905002519 35 287 3.2 14.5 0.00 0.00 0.00 30 1013.8
20260905002013 35 295 4.8 14.5 0.00 0.00 0.00 29 1013.8
20260905001528 35 295 4.8 14.5 0.00 0.00 0.00 30 1013.8
20260905001022 35 298 4.8 12.9 0.00 0.00 0.00 30 1013.7
20260905000516 35 286 4.8 12.9 0.00 0.00 0.00 30 1013.7
20260905000046 35 306 3.2 12.9 0.00 0.00 0.00 30 1013.7
20260904235527 35 285 4.8 14.5 0.00 0.00 0.00 29 1013.8
20260904235021 35 290 6.4 17.7 0.00 0.00 0.00 30 1013.6
20260904234516 35 283 8.0 17.7 0.00 0.00 0.00 30 1013.6
20260904234032 35 320 3.2 11.3 0.00 0.00 0.00 31 1013.8
20260904233527 35 322 3.2 11.3 0.00 0.00 0.00 30 1013.8
20260904233022 35 294 4.8 14.5 0.00 0.00 0.00 30 1013.9
20260904232521 35 324 3.2 14.5 0.00 0.00 0.00 31 1014.0
20260904232016 34 25 4.8 9.7 0.00 0.00 0.00 32 1013.8
20260904231531 35 310 1.6 8.0 0.00 0.00 0.00 33 1013.9
20260904231027 35 309 3.2 11.3 0.00 0.00 0.00 32 1014.0
20260904230522 35 304 3.2 11.3 0.00 0.00 0.00 32 1014.0
20260904230030 35 292 4.8 16.1 0.00 0.00 0.00 32 1014.0
20260904225531 35 264 8.0 16.1 0.00 0.00 0.00 31 1013.9
20260904225025 35 353 6.4 12.9 0.00 0.00 0.00 31 1014.0
20260904224525 35 343 3.2 12.9 0.00 0.00 0.00 30 1014.1
20260904224019 36 282 3.2 12.9 0.00 0.00 0.00 30 1014.1
20260904223514 35 288 3.2 16.1 0.00 0.00 0.00 31 1014.1
20260904223028 36 289 8.0 16.1 0.00 0.00 0.00 29 1014.2
20260904222523 35 214 8.0 14.5 0.00 0.00 0.00 29 1014.2
20260904222018 35 256 3.2 14.5 0.00 0.00 0.00 29 1014.1
20260904221513 36 255 4.8 16.1 0.00 0.00 0.00 28 1014.3
20260904221030 36 297 6.4 16.1 0.00 0.00 0.00 29 1014.4
20260904220523 36 277 8.0 14.5 0.00 0.00 0.00 29 1014.4
20260904220029 35 281 4.8 11.3 0.00 0.00 0.00 29 1014.4
20260904215527 36 313 4.8 17.7 0.00 0.00 0.00 27 1014.4
20260904215021 35 283 9.7 17.7 0.00 0.00 0.00 29 1014.4
20260904214515 35 282 4.8 6.4 0.00 0.00 0.00 30 1014.5
20260904214029 35 355 1.6 6.4 0.00 0.00 0.00 34 1014.7
20260904213523 33 355 3.2 6.4 0.00 0.00 0.00 36 1014.8
20260904213022 33 355 1.6 8.0 0.00 0.00 0.00 36 1014.7
20260904212516 33 355 3.2 8.0 0.00 0.00 0.00 37 1014.8
20260904212031 33 355 3.2 11.3 0.00 0.00 0.00 36 1014.8
20260904211525 33 355 3.2 9.7 0.00 0.00 0.00 37 1014.8
20260904211019 34 33 4.8 14.5 0.00 0.00 0.00 38 1014.9
20260904210513 33 15 1.6 8.0 0.00 0.00 0.00 39 1015.0
20260904210039 33 15 3.2 11.3 0.00 0.00 0.00 39 1015.2
20260904205523 34 10 4.8 11.3 0.00 0.00 0.00 38 1015.0
20260904205017 33 15 4.8 9.7 0.00 0.00 0.00 39 1015.0
20260904204531 33 11 1.6 12.9 0.00 0.00 0.00 39 1015.1
20260904204025 33 10 4.8 12.9 0.00 0.00 0.00 37 1015.2
20260904203519 33 11 3.2 16.1 0.00 0.00 0.00 39 1015.2
20260904203014 34 347 6.4 16.1 0.00 0.00 0.00 37 1015.3
20260904202528 35 355 3.2 9.7 0.00 0.00 0.00 37 1015.4
20260904202022 35 2 4.8 12.9 0.00 0.00 0.00 35 1015.5
20260904201521 36 348 3.2 12.9 0.00 0.00 0.00 35 1015.6
20260904201015 35 297 4.8 12.9 0.00 0.00 0.00 36 1015.7
20260904200529 35 287 3.2 22.5 0.00 0.00 0.00 36 1015.8
20260904200035 35 267 11.3 22.5 0.00 0.00 0.00 37 1015.8
20260904195515 34 214 6.4 16.1 0.00 0.00 0.00 37 1015.8
20260904195031 35 240 6.4 16.1 0.00 0.00 0.00 37 1015.9
20260904194526 34 287 3.2 4.8 0.00 0.00 0.00 38 1015.8
20260904194025 34 287 1.6 6.4 0.00 0.00 0.00 38 1015.9
20260904193519 33 266 1.6 9.7 0.00 0.00 0.00 38 1016.0
20260904193013 34 244 3.2 9.7 0.00 0.00 0.00 39 1016.1
20260904192528 34 258 4.8 11.3 0.00 0.00 0.00 38 1016.2
20260904192024 34 260 3.2 11.3 0.00 0.00 0.00 39 1016.4
20260904191519 34 260 8.0 14.5 0.00 0.00 0.00 38 1016.6
20260904191014 35 265 6.4 14.5 0.00 0.00 0.00 40 1016.5
20260904190513 35 297 1.6 4.8 0.00 0.00 0.00 40 1016.5
20260904190040 33 297 1.6 8.0 0.00 0.00 0.00 41 1016.5
20260904185522 33 296 1.6 11.3 0.00 0.00 0.00 42 1016.7
20260904185017 34 284 3.2 11.3 0.00 0.00 0.00 40 1016.6
20260904184531 33 282 3.2 11.3 0.00 0.00 0.00 43 1016.8
20260904184027 33 291 4.8 8.0 0.00 0.00 0.00 43 1016.9
20260904183522 33 295 3.2 8.0 0.00 0.00 0.00 44 1016.9
20260904183017 32 151 1.6 8.0 0.00 0.00 0.00 46 1017.0
20260904182516 32 153 4.8 9.7 0.00 0.00 0.00 45 1017.2
20260904182031 32 219 4.8 17.7 0.00 0.00 0.00 43 1017.2
20260904181526 33 218 8.0 17.7 0.00 0.00 0.00 43 1017.2
20260904181021 33 61 3.2 11.3 0.00 0.00 0.00 44 1017.3
20260904180517 32 94 6.4 19.3 0.00 0.00 0.00 47 1017.3
20260904180045 31 90 6.4 19.3 0.00 0.00 0.00 50 1017.4
20260904175526 32 89 9.7 16.1 0.00 0.00 0.00 49 1017.4
20260904175025 31 90 1.6 12.9 0.00 0.00 0.00 50 1017.4
20260904174519 31 89 4.8 12.9 0.00 0.00 0.00 52 1017.5
20260904174015 31 91 3.2 11.3 0.00 0.00 0.00 50 1017.6
20260904173530 31 92 6.4 16.1 0.00 0.00 0.00 51 1017.6
20260904173027 31 96 6.4 16.1 0.00 0.00 0.00 52 1017.7
20260904172521 31 96 6.4 14.5 0.00 0.00 0.00 51 1017.6
20260904172016 30 113 4.8 14.5 0.00 0.00 0.00 51 1017.8
20260904171514 31 273 4.8 11.3 0.00 0.00 0.00 53 1017.7
20260904171029 31 193 3.2 8.0 0.00 0.00 0.00 52 1017.8
20260904170525 30 154 3.2 14.5 0.00 0.00 0.00 52 1018.0
20260904170032 30 126 6.4 14.5 0.00 0.00 0.00 52 1018.0
20260904165514 30 214 6.4 14.5 0.00 0.00 0.00 53 1018.0
20260904165030 31 220 3.2 14.5 0.00 0.00 0.00 53 1017.9
20260904164525 30 169 6.4 14.5 0.00 0.00 0.00 55 1017.8
20260904164020 30 213 6.4 14.5 0.00 0.00 0.00 56 1017.8
20260904163519 30 148 6.4 19.3 0.00 0.00 0.00 56 1017.8
20260904163014 29 133 9.7 19.3 0.00 0.00 0.00 56 1017.8
20260904162529 29 113 4.8 14.5 0.00 0.00 0.00 57 1017.8
20260904162024 29 91 8.0 14.5 0.00 0.00 0.00 58 1017.7
20260904161520 29 134 6.4 19.3 0.00 0.00 0.00 58 1017.8
20260904161016 29 119 8.0 19.3 0.00 0.00 0.00 58 1017.6
20260904160531 28 85 6.4 12.9 0.00 0.00 0.00 61 1017.7
20260904160044 28 77 6.4 14.5 0.00 0.00 0.00 62 1017.7
20260904155525 28 111 4.8 16.1 0.00 0.00 0.00 63 1017.6
20260904155021 28 126 8.0 16.1 0.00 0.00 0.00 63 1017.7
20260904154518 27 112 6.4 16.1 0.00 0.00 0.00 64 1017.6
20260904154013 27 102 6.4 14.5 0.00 0.00 0.00 65 1017.6
20260904153528 27 122 8.0 14.5 0.00 0.00 0.00 64 1017.5
20260904153024 27 108 4.8 14.5 0.00 0.00 0.00 66 1017.5
20260904152523 27 107 8.0 16.1 0.00 0.00 0.00 66 1017.5
20260904152017 27 127 9.7 17.7 0.00 0.00 0.00 65 1017.7
20260904151513 27 124 8.0 17.7 0.00 0.00 0.00 65 1017.6
20260904151030 27 101 8.0 17.7 0.00 0.00 0.00 65 1017.5
20260904150525 27 90 6.4 14.5 0.00 0.00 0.00 66 1017.5
20260904150032 27 121 4.8 14.5 0.00 0.00 0.00 66 1017.5
20260904145513 27 111 9.7 14.5 0.00 0.00 0.00 66 1017.5
20260904145014 26 119 8.0 16.1 0.00 0.00 0.00 67 1017.5
20260904144528 26 130 8.0 16.1 0.00 0.00 0.00 67 1017.5
20260904144023 26 117 8.0 14.5 0.00 0.00 0.00 67 1017.5
20260904143519 26 111 6.4 14.5 0.00 0.00 0.00 68 1017.4
20260904143014 26 110 8.0 14.5 0.00 0.00 0.00 68 1017.3
20260904142530 26 146 4.8 9.7 0.00 0.00 0.00 69 1017.3
20260904142026 26 131 6.4 9.7 0.00 0.00 0.00 68 1017.4
20260904141522 26 144 4.8 9.7 0.00 0.00 0.00 68 1017.3
20260904141022 26 136 4.8 9.7 0.00 0.00 0.00 69 1017.3
20260904140517 26 159 3.2 6.4 0.00 0.00 0.00 69 1017.2
20260904140045 26 159 3.2 8.0 0.00 0.00 0.00 70 1017.1
20260904135526 25 159 4.8 8.0 0.00 0.00 0.00 70 1017.1
20260904135021 25 159 3.2 8.0 0.00 0.00 0.00 71 1017.0
20260904134516 25 164 3.2 6.4 0.00 0.00 0.00 71 1016.9
20260904134031 25 164 3.2 6.4 0.00 0.00 0.00 71 1016.7
20260904133530 25 164 1.6 4.8 0.00 0.00 0.00 71 1016.7
20260904133024 25 180 3.2 4.8 0.00 0.00 0.00 72 1016.8
20260904132519 25 169 1.6 4.8 0.00 0.00 0.00 72 1016.7
20260904132015 25 169 1.6 4.8 0.00 0.00 0.00 72 1016.6
20260904131530 24 169 1.6 6.4 0.00 0.00 0.00 73 1016.5
20260904131026 24 169 3.2 6.4 0.00 0.00 0.00 73 1016.5
20260904130521 24 176 1.6 6.4 0.00 0.00 0.00 73 1016.4
20260904130033 24 177 3.2 6.4 0.00 0.00 0.00 73 1016.3
20260904125514 24 173 1.6 6.4 0.00 0.00 0.00 72 1016.3
20260904125029 25 169 3.2 6.4 0.00 0.00 0.00 72 1016.2
20260904124524 25 177 3.2 6.4 0.00 0.00 0.00 72 1016.1
20260904124019 25 169 3.2 8.0 0.00 0.00 0.00 72 1016.0
20260904123516 25 169 3.2 8.0 0.00 0.00 0.00 71 1015.9
20260904123030 25 129 4.8 8.0 0.00 0.00 0.00 71 1015.9
20260904122525 25 131 3.2 6.4 0.00 0.00 0.00 71 1015.9
20260904122024 25 133 4.8 9.7 0.00 0.00 0.00 71 1015.8
20260904121520 25 133 4.8 9.7 0.00 0.00 0.00 71 1015.8
20260904121016 25 139 3.2 9.7 0.00 0.00 0.00 71 1015.8
20260904120531 25 141 3.2 9.7 0.00 0.00 0.00 71 1015.8
20260904120038 25 150 3.2 8.0 0.00 0.00 0.00 71 1015.7
20260904115518 25 134 3.2 9.7 0.00 0.00 0.00 71 1015.8
20260904115013 25 135 3.2 9.7 0.00 0.00 0.00 70 1015.8
20260904114513 25 135 4.8 14.5 0.00 0.00 0.00 69 1015.8
20260904114028 25 135 4.8 14.5 0.00 0.00 0.00 69 1015.7
20260904113524 25 125 6.4 12.9 0.00 0.00 0.00 68 1015.7
20260904113019 26 140 6.4 14.5 0.00 0.00 0.00 68 1015.7
20260904112514 26 144 8.0 14.5 0.00 0.00 0.00 68 1015.6
20260904112029 26 135 8.0 14.5 0.00 0.00 0.00 67 1015.5
20260904111524 26 106 8.0 14.5 0.00 0.00 0.00 67 1015.5
20260904111023 26 99 6.4 12.9 0.00 0.00 0.00 67 1015.5
20260904110518 26 117 8.0 12.9 0.00 0.00 0.00 67 1015.5
20260904110045 26 110 4.8 14.5 0.00 0.00 0.00 67 1015.5
20260904105525 26 115 6.4 14.5 0.00 0.00 0.00 67 1015.5
20260904105020 26 131 4.8 14.5 0.00 0.00 0.00 66 1015.6
20260904104516 26 111 6.4 16.1 0.00 0.00 0.00 66 1015.5
20260904104012 26 139 9.7 16.1 0.00 0.00 0.00 66 1015.5
20260904103527 26 122 6.4 16.1 0.00 0.00 0.00 66 1015.4
20260904103027 26 129 8.0 16.1 0.00 0.00 0.00 66 1015.6
20260904102522 26 103 8.0 14.5 0.00 0.00 0.00 66 1015.5
20260904102016 26 115 4.8 9.7 0.00 0.00 0.00 66 1015.6
20260904101531 26 122 6.4 9.7 0.00 0.00 0.00 66 1015.5
20260904101025 26 129 6.4 9.7 0.00 0.00 0.00 66 1015.4
20260904100518 26 144 3.2 8.0 0.00 0.00 0.00 67 1015.4
20260904100044 26 150 3.2 8.0 0.00 0.00 0.00 67 1015.4
20260904095528 26 154 1.6 9.7 0.00 0.00 0.00 68 1015.4
20260904095022 26 144 4.8 9.7 0.00 0.00 0.00 68 1015.3
20260904094516 26 153 3.2 8.0 0.00 0.00 0.00 68 1015.4
20260904094030 26 129 1.6 4.8 0.00 0.00 0.00 68 1015.3
20260904093524 26 130 1.6 4.8 0.00 0.00 0.00 68 1015.3
20260904093017 26 130 3.2 6.4 0.00 0.00 0.00 67 1015.2
20260904092531 26 130 3.2 8.0 0.00 0.00 0.00 67 1015.2
20260904092025 26 131 4.8 8.0 0.00 0.00 0.00 67 1015.3
20260904091524 26 134 4.8 8.0 0.00 0.00 0.00 67 1015.3
20260904091019 26 136 3.2 9.7 0.00 0.00 0.00 67 1015.2
20260904090513 26 137 4.8 9.7 0.00 0.00 0.00 67 1015.2
20260904090040 26 137 4.8 9.7 0.00 0.00 0.00 67 1015.3
20260904085520 26 129 4.8 9.7 0.00 0.00 0.00 67 1015.2
20260904085015 26 121 4.8 8.0 0.00 0.00 0.00 66 1015.2
20260904084530 26 117 4.8 8.0 0.00 0.00 0.00 66 1015.3
20260904084029 26 115 4.8 9.7 0.00 0.00 0.00 66 1015.2